Regional Weather Roundup
Issued by NWS

Home | Current Version | Previous Version | Text Only | Print | Product List | Glossary Off
Versions: 1 2 3 4 5 6 7 8 9 10 11 12 13 14 15 16 17 18 19 20 21 22 23 24 25 26 27 28 29 30 31 32 33 34 35 36 37 38 39 40 41 42 43 44 45 46 47 48 49 50

550
ASUS43 KDMX 080808
RWRIA

WEATHER ROUNDUP FOR IOWA
NATIONAL WEATHER SERVICE DES MOINES IA
200 AM CST MON FEB 08 2016

NOTE: "FAIR" INDICATES FEW OR NO CLOUDS BELOW 12,000 FEET WITH NO
SIGNIFICANT WEATHER AND/OR OBSTRUCTIONS TO VISIBILITY.

* - THESE STATIONS ARE NOT NWS STATIONS...THUS NOT UNDER NWS
QUALITY CONTROL.  THEY ALSO DO NOT REPORT WEATHER SUCH
AS PRECIPITATION OR FOG.

IAZ001>003-012>014-020>022-031>034-043>046-080900-
   NORTHWEST IOWA

CITY           SKY/WX    TMP DP  RH WIND       PRES   REMARKS
CARROLL *      FLURRIES  21  14  73 NW39G47   29.90F WCI   1
CHEROKEE *     LGT SNOW  21  18  86 NW21G28   29.94S WCI   6
DENISON *      LGT SNOW  23  18  80 N25G39    29.92S WCI   7
LE MARS *      FLURRIES  25  23  93 N21G29    29.98S WCI  10
ORANGE CITY *    N/A    N/A N/A N/A N17G23    29.94S
SHELDON *      LGT SNOW  19  16  86 NW31G37   29.91F WCI   0
SIOUX CITY     CLOUDY    29  19  66 N29G39    29.96F WCI  14
SPENCER        LGT SNOW  18  11  74 NW41G49   29.89F VSB 1   WCI  -4
STORM LAKE *   FLURRIES  19  14  79 N31G40    29.90S WCI   0
$$

IAZ055>058-069>071-079>083-090>094-080900-
   SOUTHWEST IOWA

CITY           SKY/WX    TMP DP  RH WIND       PRES   REMARKS
ATLANTIC *     LGT SNOW  27  21  80 NW32G40   29.93F WCI  10
AUDUBON *      FLURRIES  23  18  80 NW23G30   29.92S WCI   7
CLARINDA *     FLURRIES  30  23  74 N20G33    29.98F WCI  18
COUNCIL BLFS * CLOUDY    28  23  80 NW14      29.96F WCI  17
CRESTON *      CLOUDY    25  18  74 NW25G35   29.91S WCI   9
HARLAN  *      SNOW      25  23  93 N33G41    29.97S VSB 1/2 WCI   7
LAMONI         LGT SNOW  25  20  81 NW22G31   29.89S WCI  10
RED OAK *      CLOUDY    30  23  74 NW18G28   29.97S WCI  18
SHENANDOAH *   CLOUDY    30  25  80 NW13G20   29.99F WCI  20
$$

IAZ047>049-059>061-072>074-084-080900-
   CENTRAL IOWA

CITY           SKY/WX    TMP DP  RH WIND       PRES   REMARKS
AMES           LGT SNOW  22  19  89 N17G26    29.85S FOG     WCI   8
ANKENY *       FLURRIES  23  18  80 NW22G30   29.86S WCI   8
BOONE *        FLURRIES  21  14  73 NW24G32   29.84S WCI   4
CHARITON *     FLURRIES  25  18  74 NW23G36   29.85S WCI  10
DES MOINES     FLURRIES  25  16  68 NW23G31   29.87S WCI  10
GRINNELL*      FLURRIES  25  19  80 NW29      29.81R WCI   8
KNOXVILLE *    LGT SNOW  27  21  80 NW23G31   29.82S WCI  12
MARSHALLTOWN   CLOUDY    21  14  74 NW26G40   29.81S WCI   4
NEWTON *       LGT SNOW  23  19  86 NW22G31   29.83R WCI   8
PELLA *        LGT SNOW  27  21  80 NW21G32   29.84S WCI  13
$$

IAZ004>006-015-016-023>025-035-036-080900-
   NORTH CENTRAL IOWA

CITY           SKY/WX    TMP DP  RH WIND       PRES   REMARKS
ALGONA *       SNOW      16  14  93 NW28G43   29.83S VSB 1/2 WCI  -4
CLARION *      LGT SNOW  18  12  79 NW39      29.82S WCI  -4
ESTHERVILLE    FOG       15  12  88 NW38G49   29.86S VSB<1/4 WCI  -7
FORT DODGE *   CLOUDY    19  10  68 NW17G28   29.87S WCI   4
MASON CITY     LGT SNOW  15  11  83 NW33G39   29.79S FOG     WCI  -6
FOREST CITY *  FLURRIES  16  10  79 NW23G35   29.79S WCI  -2
WEBSTER CITY * SNOW      19  18  93 NW32      29.82F VSB 1/4 WCI   0
IOWA FALLS *   LGT SNOW  19  18  93 NW26      29.81S VSB 1   WCI   1
$$

IAZ007>011-017>019-026>030-037>042-050>054-066-080900-
   NORTHEAST IOWA

CITY           SKY/WX    TMP DP  RH WIND       PRES   REMARKS
CEDAR RAPIDS   CLOUDY    24  18  77 NW25G41   29.74S WCI   8
CHARLES CITY * FLURRIES  18  14  86 NW16G25   29.75S WCI   3
CLINTON *      FLURRIES  30  26  85 NW20G26   29.68S WCI  17
DECORAH *      LGT SNOW  19  16  86 NW14G22   29.69S WCI   6
DUBUQUE        CLOUDY    26  18  71 W18       29.67S WCI  13
MONTICELLO *   CLOUDY    25  18  74 NW20G28   29.71S WCI  11
OELWEIN *      LGT SNOW  19  18  93 NW18G25   29.73S WCI   4
WATERLOO       LGT SNOW  19  15  84 NW16G24   29.76S FOG     WCI   4
$$

IAZ064-065-067-068-078-080900-
   EAST CENTRAL IOWA

CITY           SKY/WX    TMP DP  RH WIND       PRES   REMARKS
DAVENPORT      CLOUDY    31  24  75 NW22G29   29.70S WCI  18
IOWA CITY      CLOUDY    27  15  61 NW21G37   29.78R WCI  13
MT. PLEASANT * MIX PCPN  34  32  93 NW12G21   29.76S WCI  25
MUSCATINE *    CLOUDY    32  25  74 NW22G30   29.75S WCI  19
QUAD CITIES    CLOUDY    32  25  75 NW20G26   29.70S WCI  20
$$

IAZ062-063-075>077-085>089-095>099-080900-
   SOUTHEAST IOWA

CITY           SKY/WX    TMP DP  RH WIND       PRES   REMARKS
BURLINGTON     LGT SNOW  31  30  96 NW16G25   29.74S FOG     WCI  20
FAIRFIELD *    CLOUDY    30  21  69 NW23G32   29.78R WCI  17
FORT MADISON * LGT SNOW  32  30  93 NW18G25   29.76F WCI  20
KEOKUK *       LGT RAIN  34  30  86 W15G24    29.77S WCI  24
OSKALOOSA *    MIX PCPN  28  23  80 NW26G35   29.81S WCI  13
CENTERVILLE *    N/A    N/A N/A N/A MISG        N/A
OTTUMWA        LGT SNOW  28  25  88 NW25G31   29.81R FOG     WCI  13
WASHINGTON *   CLOUDY    30  25  80 NW20      29.78R WCI  18
$$

ABBREVIATIONS USED IN REMARKS
   TC - TEMPERATURES IN CELSIUS
  WCI - WIND CHILL INDEX
   HX - HEAT INDEX
  VSB - VISIBILITY
$$





USA.gov is the U.S. government's official web portal to all federal, state and local government web resources and services.